Regional Weather Roundup
Issued by NWS

Home | Current Version | Previous Version | Text Only | Print | Product List | Glossary On
Versions: 1 2 3 4 5 6 7 8 9 10 11 12 13 14 15 16 17 18 19 20 21 22 23 24 25 26 27 28 29 30 31 32 33 34 35 36 37 38 39 40 41 42 43 44 45 46 47 48 49 50
000
ASUS43 KLSX 300707
RWRMO

WEATHER SUMMARY FOR MISSOURI
NATIONAL WEATHER SERVICE SPRINGFIELD MO
200 AM CDT SAT AUG 30 2014

NOTE: "FAIR" INDICATES FEW OR NO CLOUDS BELOW 12,000 FEET WITH NO
       SIGNIFICANT WEATHER AND/OR OBSTRUCTIONS TO VISIBILITY.
       CURRENT SKY AND/OR WEATHER CONDITIONS ARE NOT AVAILABLE FOR
       CHILLICOTHE AND FARMINGTON.

MOZ001>031-035>038-043-044-053-054-300800-
...NORTHERN AND WESTERN MISSOURI...

CITY           SKY/WX    TMP DP  RH WIND       PRES   REMARKS
KANSAS CTY INT PTCLDY    70  67  90 SW8       29.87F
KANSAS C DTWN  MOCLDY    73  70  90 CALM      29.87S
LEE`S SUMMIT   PTCLDY    73  66  78 SW7       29.89F
ST JOSEPH      CLEAR     68  66  93 SW3       29.86S
CHILLICOTHE      N/A     71  67  87 S6        29.87F
KIRKSVILLE     LGT RAIN  69  67  93 W10       29.90R

$$
MOZ066>068-077>081-088>096-101>105-300800-
...SOUTHWEST MISSOURI...

CITY           SKY/WX    TMP DP  RH WIND       PRES   REMARKS
SPRINGFIELD    PTCLDY    72  67  84 S9        29.95F
JOPLIN         MOCLDY    74  67  78 S10       29.94S

$$
MOZ032>034-039>042-045>050-055>058-069>072-300800-
...CENTRAL MISSOURI...

CITY           SKY/WX    TMP DP  RH WIND       PRES   REMARKS
COLUMBIA       CLEAR     71  69  93 S8        29.91F
JEFFERSON CITY CLEAR     72  68  87 CALM      29.91S
ROLLA          PTCLDY    70  66  87 S12       29.94S
SEDALIA        PTCLDY    75  66  73 S10       29.91S
WHITEMAN AFB   PTCLDY    71  67  87 SW8       29.90S
OSAGE BEACH    CLOUDY    72  66  83 SE3       29.93F

$$
MOZ051-052-059>065-300800-
...EAST CENTRAL MISSOURI...

CITY           SKY/WX    TMP DP  RH WIND       PRES   REMARKS
ST LOUIS INTL  CLOUDY    79  68  69 SW9       29.92S
SPIRIT OF STL  CLOUDY    76  68  76 S7        29.90S
ST CHARLES     MOCLDY    76  70  82 S7        29.90S

$$
MOZ072>076-082>087-097>100-106>115-300800-
...SOUTH CENTRAL AND SOUTHEAST MISSOURI...

CITY           SKY/WX    TMP DP  RH WIND       PRES   REMARKS
CAPE GIRARDEAU CLOUDY    73  70  90 CALM      29.97S
FARMINGTON     CLOUDY    72  68  88 S7        29.99S
POPLAR BLUFF   CLOUDY    73  69  87 CALM      29.96F
WEST PLAINS    CLOUDY    71  67  87 SW5       30.00F

$$



USA.gov is the U.S. government's official web portal to all federal, state and local government web resources and services.